owner,sensor,date,latitude,longitude,vertical_datum,wind_speed,wind_to_direction,wind_speed_of_gust,qcFlag 
LOOP,urn:ioos:station:wmo:lopl1:1,2013-09-01T00:03:00Z,28.8850,-90.0250,10.0,2.0,-9999.0,3.3,'11111222,99999999,11111222' 
LOOP,urn:ioos:station:wmo:lopl1:1,2013-09-01T00:18:00Z,28.8850,-90.0250,10.0,2.0,-9999.0,2.6,'11111222,99999999,11111222' 
LOOP,urn:ioos:station:wmo:lopl1:1,2013-09-01T00:33:00Z,28.8850,-90.0250,10.0,2.4,-9999.0,3.3,'11111222,99999999,11111222' 
LOOP,urn:ioos:station:wmo:lopl1:1,2013-09-01T00:48:00Z,28.8850,-90.0250,10.0,2.1,-9999.0,3.3,'11111222,99999999,11111222' 
LOOP,urn:ioos:station:wmo:lopl1:1,2013-09-01T01:03:00Z,28.8850,-90.0250,10.0,3.1,-9999.0,3.9,'11111222,99999999,11111222' 
LOOP,urn:ioos:station:wmo:lopl1:1,2013-09-01T01:18:00Z,28.8850,-90.0250,10.0,3.4,-9999.0,4.6,'11111222,99999999,11111222' 
LOOP,urn:ioos:station:wmo:lopl1:1,2013-09-01T01:33:00Z,28.8850,-90.0250,10.0,3.9,-9999.0,4.7,'11111222,99999999,11111222' 
LOOP,urn:ioos:station:wmo:lopl1:1,2013-09-01T01:48:00Z,28.8850,-90.0250,10.0,3.5,-9999.0,5.1,'11111222,99999999,11111222' 
LOOP,urn:ioos:station:wmo:lopl1:1,2013-09-01T02:03:00Z,28.8850,-90.0250,10.0,3.5,-9999.0,4.7,'11111222,99999999,11111222' 
LOOP,urn:ioos:station:wmo:lopl1:1,2013-09-01T02:18:00Z,28.8850,-90.0250,10.0,4.3,-9999.0,4.9,'11111222,99999999,11111222' 
LOOP,urn:ioos:station:wmo:lopl1:1,2013-09-01T02:33:00Z,28.8850,-90.0250,10.0,4.0,-9999.0,5.6,'11111222,99999999,11111222' 
LOOP,urn:ioos:station:wmo:lopl1:1,2013-09-01T02:48:00Z,28.8850,-90.0250,10.0,3.4,-9999.0,4.5,'11111222,99999999,11111222' 
LOOP,urn:ioos:station:wmo:lopl1:1,2013-09-01T03:03:00Z,28.8850,-90.0250,10.0,3.8,-9999.0,4.7,'11111222,99999999,11111222' 
LOOP,urn:ioos:station:wmo:lopl1:1,2013-09-01T03:18:00Z,28.8850,-90.0250,10.0,3.3,-9999.0,4.3,'11111222,99999999,11111222' 
LOOP,urn:ioos:station:wmo:lopl1:1,2013-09-01T03:33:00Z,28.8850,-90.0250,10.0,2.8,-9999.0,3.9,'11111222,99999999,11111222' 
LOOP,urn:ioos:station:wmo:lopl1:1,2013-09-01T03:48:00Z,28.8850,-90.0250,10.0,2.0,-9999.0,2.9,'11111222,99999999,11111222' 
LOOP,urn:ioos:station:wmo:lopl1:1,2013-09-01T04:03:00Z,28.8850,-90.0250,10.0,2.6,-9999.0,3.6,'11111222,99999999,11111222' 
LOOP,urn:ioos:station:wmo:lopl1:1,2013-09-01T04:18:00Z,28.8850,-90.0250,10.0,2.6,-9999.0,3.3,'11111222,99999999,11111222' 
LOOP,urn:ioos:station:wmo:lopl1:1,2013-09-01T04:33:00Z,28.8850,-90.0250,10.0,2.3,-9999.0,2.7,'11111222,99999999,11111222' 
LOOP,urn:ioos:station:wmo:lopl1:1,2013-09-01T04:48:00Z,28.8850,-90.0250,10.0,2.5,-9999.0,3.1,'11111222,99999999,11111222' 
LOOP,urn:ioos:station:wmo:lopl1:1,2013-09-01T05:03:00Z,28.8850,-90.0250,10.0,1.9,-9999.0,3.0,'11111222,99999999,11111222' 
LOOP,urn:ioos:station:wmo:lopl1:1,2013-09-01T05:18:00Z,28.8850,-90.0250,10.0,1.7,-9999.0,3.0,'11111222,99999999,11111222' 
LOOP,urn:ioos:station:wmo:lopl1:1,2013-09-01T05:33:00Z,28.8850,-90.0250,10.0,2.5,-9999.0,3.5,'11111222,99999999,11111222' 
LOOP,urn:ioos:station:wmo:lopl1:1,2013-09-01T05:48:00Z,28.8850,-90.0250,10.0,1.6,-9999.0,2.1,'11111222,99999999,11111222' 
LOOP,urn:ioos:station:wmo:lopl1:1,2013-09-01T06:03:00Z,28.8850,-90.0250,10.0,1.7,-9999.0,2.6,'11111222,99999999,11111222' 
LOOP,urn:ioos:station:wmo:lopl1:1,2013-09-01T06:18:00Z,28.8850,-90.0250,10.0,2.3,-9999.0,3.3,'11111222,99999999,11111222' 
LOOP,urn:ioos:station:wmo:lopl1:1,2013-09-01T06:33:00Z,28.8850,-90.0250,10.0,3.0,-9999.0,4.6,'11111222,99999999,11111222' 
LOOP,urn:ioos:station:wmo:lopl1:1,2013-09-01T06:48:00Z,28.8850,-90.0250,10.0,3.4,-9999.0,4.3,'11111222,99999999,11111222' 
LOOP,urn:ioos:station:wmo:lopl1:1,2013-09-01T07:03:00Z,28.8850,-90.0250,10.0,4.0,-9999.0,5.3,'11111222,99999999,11111222' 
LOOP,urn:ioos:station:wmo:lopl1:1,2013-09-01T07:18:00Z,28.8850,-90.0250,10.0,3.8,-9999.0,4.7,'11111222,99999999,11111222' 
LOOP,urn:ioos:station:wmo:lopl1:1,2013-09-01T07:33:00Z,28.8850,-90.0250,10.0,4.4,-9999.0,5.1,'11111222,99999999,11111222' 
LOOP,urn:ioos:station:wmo:lopl1:1,2013-09-01T07:48:00Z,28.8850,-90.0250,10.0,4.1,-9999.0,4.8,'11111222,99999999,11111222' 
LOOP,urn:ioos:station:wmo:lopl1:1,2013-09-01T08:03:00Z,28.8850,-90.0250,10.0,4.2,-9999.0,5.2,'11111222,99999999,11111222' 
LOOP,urn:ioos:station:wmo:lopl1:1,2013-09-01T08:18:00Z,28.8850,-90.0250,10.0,4.0,-9999.0,5.0,'11111222,99999999,11111222' 
LOOP,urn:ioos:station:wmo:lopl1:1,2013-09-01T08:33:00Z,28.8850,-90.0250,10.0,3.7,-9999.0,4.6,'11111222,99999999,11111222' 
LOOP,urn:ioos:station:wmo:lopl1:1,2013-09-01T08:48:00Z,28.8850,-90.0250,10.0,4.1,-9999.0,5.1,'11111222,99999999,11111222' 
LOOP,urn:ioos:station:wmo:lopl1:1,2013-09-01T09:03:00Z,28.8850,-90.0250,10.0,3.9,-9999.0,4.6,'11111222,99999999,11111222' 
LOOP,urn:ioos:station:wmo:lopl1:1,2013-09-01T09:18:00Z,28.8850,-90.0250,10.0,4.0,-9999.0,4.8,'11111222,99999999,11111222' 
LOOP,urn:ioos:station:wmo:lopl1:1,2013-09-01T09:33:00Z,28.8850,-90.0250,10.0,3.5,-9999.0,4.5,'11111222,99999999,11111222' 
LOOP,urn:ioos:station:wmo:lopl1:1,2013-09-01T09:48:00Z,28.8850,-90.0250,10.0,3.5,-9999.0,4.4,'11111222,99999999,11111222' 
LOOP,urn:ioos:station:wmo:lopl1:1,2013-09-01T10:08:00Z,28.8850,-90.0250,10.0,2.7,-9999.0,4.0,'11111222,99999999,11111222' 
LOOP,urn:ioos:station:wmo:lopl1:1,2013-09-01T10:23:00Z,28.8850,-90.0250,10.0,3.0,-9999.0,4.6,'11111222,99999999,11111222' 
LOOP,urn:ioos:station:wmo:lopl1:1,2013-09-01T10:38:00Z,28.8850,-90.0250,10.0,2.9,-9999.0,4.1,'11111222,99999999,11111222' 
LOOP,urn:ioos:station:wmo:lopl1:1,2013-09-01T10:53:00Z,28.8850,-90.0250,10.0,2.5,-9999.0,3.5,'11111222,99999999,11111222' 
LOOP,urn:ioos:station:wmo:lopl1:1,2013-09-01T11:08:00Z,28.8850,-90.0250,10.0,2.4,-9999.0,3.8,'11111222,99999999,11111222' 
LOOP,urn:ioos:station:wmo:lopl1:1,2013-09-01T11:23:00Z,28.8850,-90.0250,10.0,2.1,267.0,3.4,'11111222,11111222,11111222' 
LOOP,urn:ioos:station:wmo:lopl1:1,2013-09-01T11:38:00Z,28.8850,-90.0250,10.0,2.0,-9999.0,3.3,'11111222,99999999,11111222' 
LOOP,urn:ioos:station:wmo:lopl1:1,2013-09-01T11:53:00Z,28.8850,-90.0250,10.0,1.5,-9999.0,3.1,'11111222,99999999,11111222' 
LOOP,urn:ioos:station:wmo:lopl1:1,2013-09-01T12:08:00Z,28.8850,-90.0250,10.0,2.1,-9999.0,2.8,'11111222,99999999,11111222' 
LOOP,urn:ioos:station:wmo:lopl1:1,2013-09-01T12:23:00Z,28.8850,-90.0250,10.0,2.1,-9999.0,2.8,'11111222,99999999,11111222' 
LOOP,urn:ioos:station:wmo:lopl1:1,2013-09-01T12:38:00Z,28.8850,-90.0250,10.0,1.9,-9999.0,2.6,'11111222,99999999,11111222' 
LOOP,urn:ioos:station:wmo:lopl1:1,2013-09-01T12:53:00Z,28.8850,-90.0250,10.0,1.7,-9999.0,2.7,'11111222,99999999,11111222' 
LOOP,urn:ioos:station:wmo:lopl1:1,2013-09-01T13:08:00Z,28.8850,-90.0250,10.0,1.1,267.0,2.1,'11111222,11111222,11111222' 
LOOP,urn:ioos:station:wmo:lopl1:1,2013-09-01T13:23:00Z,28.8850,-90.0250,10.0,1.5,273.0,2.9,'11111222,11111222,11111222' 
LOOP,urn:ioos:station:wmo:lopl1:1,2013-09-01T13:38:00Z,28.8850,-90.0250,10.0,1.1,271.0,2.8,'11111222,11111222,11111222' 
LOOP,urn:ioos:station:wmo:lopl1:1,2013-09-01T13:53:00Z,28.8850,-90.0250,10.0,1.1,244.0,2.8,'11111222,11111222,11111222' 
LOOP,urn:ioos:station:wmo:lopl1:1,2013-09-01T14:08:00Z,28.8850,-90.0250,10.0,1.2,274.0,2.3,'11111222,11111222,11111222' 
LOOP,urn:ioos:station:wmo:lopl1:1,2013-09-01T14:23:00Z,28.8850,-90.0250,10.0,1.2,274.0,2.7,'11111222,11111222,11111222' 
LOOP,urn:ioos:station:wmo:lopl1:1,2013-09-01T14:38:00Z,28.8850,-90.0250,10.0,0.6,-9999.0,1.7,'11111222,99999999,11111222' 
LOOP,urn:ioos:station:wmo:lopl1:1,2013-09-01T14:53:00Z,28.8850,-90.0250,10.0,1.0,-9999.0,2.0,'11111222,99999999,11111222' 
LOOP,urn:ioos:station:wmo:lopl1:1,2013-09-01T15:08:00Z,28.8850,-90.0250,10.0,0.7,283.0,1.9,'11111222,11111222,11111222' 
LOOP,urn:ioos:station:wmo:lopl1:1,2013-09-01T15:23:00Z,28.8850,-90.0250,10.0,1.3,-9999.0,2.1,'11111222,99999999,11111222' 
LOOP,urn:ioos:station:wmo:lopl1:1,2013-09-01T15:38:00Z,28.8850,-90.0250,10.0,0.6,261.0,1.7,'11111222,11111222,11111222' 
LOOP,urn:ioos:station:wmo:lopl1:1,2013-09-01T15:53:00Z,28.8850,-90.0250,10.0,1.3,-9999.0,2.0,'11111222,99999999,11111222' 
LOOP,urn:ioos:station:wmo:lopl1:1,2013-09-01T16:08:00Z,28.8850,-90.0250,10.0,1.4,-9999.0,2.1,'11111222,99999999,11111222' 
LOOP,urn:ioos:station:wmo:lopl1:1,2013-09-01T16:23:00Z,28.8850,-90.0250,10.0,0.9,-9999.0,1.7,'11111222,99999999,11111222' 
LOOP,urn:ioos:station:wmo:lopl1:1,2013-09-01T16:38:00Z,28.8850,-90.0250,10.0,0.8,-9999.0,1.9,'11111222,99999999,11111222' 
LOOP,urn:ioos:station:wmo:lopl1:1,2013-09-01T16:53:00Z,28.8850,-90.0250,10.0,0.9,241.0,2.3,'11111222,11111222,11111222' 
LOOP,urn:ioos:station:wmo:lopl1:1,2013-09-01T17:08:00Z,28.8850,-90.0250,10.0,0.5,-9999.0,1.1,'11111222,99999999,11111222' 
LOOP,urn:ioos:station:wmo:lopl1:1,2013-09-01T17:23:00Z,28.8850,-90.0250,10.0,0.3,299.0,0.9,'11111222,11111222,11111222' 
LOOP,urn:ioos:station:wmo:lopl1:1,2013-09-01T17:43:00Z,28.8850,-90.0250,10.0,0.9,243.0,2.0,'11111222,11111222,11111222' 
LOOP,urn:ioos:station:wmo:lopl1:1,2013-09-01T17:58:00Z,28.8850,-90.0250,10.0,1.8,200.0,2.8,'11111222,11111222,11111222' 
LOOP,urn:ioos:station:wmo:lopl1:1,2013-09-01T18:13:00Z,28.8850,-90.0250,10.0,1.3,204.0,1.9,'11111222,11111222,11111222' 
LOOP,urn:ioos:station:wmo:lopl1:1,2013-09-01T18:28:00Z,28.8850,-90.0250,10.0,1.8,209.0,2.4,'11111222,11111222,11111222' 
LOOP,urn:ioos:station:wmo:lopl1:1,2013-09-01T18:43:00Z,28.8850,-90.0250,10.0,2.4,245.0,3.6,'11111222,11111222,11111222' 
LOOP,urn:ioos:station:wmo:lopl1:1,2013-09-01T18:58:00Z,28.8850,-90.0250,10.0,2.3,216.0,3.1,'11111222,11111222,11111222' 
LOOP,urn:ioos:station:wmo:lopl1:1,2013-09-01T19:13:00Z,28.8850,-90.0250,10.0,1.9,273.0,3.0,'11111222,11111222,11111222' 
LOOP,urn:ioos:station:wmo:lopl1:1,2013-09-01T19:28:00Z,28.8850,-90.0250,10.0,1.3,248.0,2.3,'11111222,11111222,11111222' 
LOOP,urn:ioos:station:wmo:lopl1:1,2013-09-01T19:43:00Z,28.8850,-90.0250,10.0,1.4,231.0,3.0,'11111222,11111222,11111222' 
LOOP,urn:ioos:station:wmo:lopl1:1,2013-09-01T19:58:00Z,28.8850,-90.0250,10.0,2.4,217.0,3.1,'11111222,11111222,11111222' 
LOOP,urn:ioos:station:wmo:lopl1:1,2013-09-01T20:13:00Z,28.8850,-90.0250,10.0,1.7,229.0,2.7,'11111222,11111222,11111222' 
LOOP,urn:ioos:station:wmo:lopl1:1,2013-09-01T20:28:00Z,28.8850,-90.0250,10.0,2.2,224.0,3.0,'11111222,11111222,11111222' 
LOOP,urn:ioos:station:wmo:lopl1:1,2013-09-01T20:43:00Z,28.8850,-90.0250,10.0,2.8,221.0,3.5,'11111222,11111222,11111222' 
LOOP,urn:ioos:station:wmo:lopl1:1,2013-09-01T20:58:00Z,28.8850,-90.0250,10.0,2.9,214.0,3.5,'11111222,11111222,11111222' 
LOOP,urn:ioos:station:wmo:lopl1:1,2013-09-01T21:13:00Z,28.8850,-90.0250,10.0,3.0,220.0,4.0,'11111222,11111222,11111222' 
LOOP,urn:ioos:station:wmo:lopl1:1,2013-09-01T21:28:00Z,28.8850,-90.0250,10.0,2.8,205.0,3.7,'11111222,11111222,11111222' 
LOOP,urn:ioos:station:wmo:lopl1:1,2013-09-01T21:43:00Z,28.8850,-90.0250,10.0,3.0,223.0,4.2,'11111222,11111222,11111222' 
LOOP,urn:ioos:station:wmo:lopl1:1,2013-09-01T21:58:00Z,28.8850,-90.0250,10.0,3.0,207.0,4.0,'11111222,11111222,11111222' 
LOOP,urn:ioos:station:wmo:lopl1:1,2013-09-01T22:13:00Z,28.8850,-90.0250,10.0,2.4,212.0,3.2,'11111222,11111222,11111222' 
LOOP,urn:ioos:station:wmo:lopl1:1,2013-09-01T22:28:00Z,28.8850,-90.0250,10.0,3.6,220.0,4.4,'11111222,11111222,11111222' 
LOOP,urn:ioos:station:wmo:lopl1:1,2013-09-01T22:43:00Z,28.8850,-90.0250,10.0,2.8,246.0,3.7,'11111222,11111222,11111222' 
LOOP,urn:ioos:station:wmo:lopl1:1,2013-09-01T22:58:00Z,28.8850,-90.0250,10.0,1.3,286.0,3.0,'11111222,11111222,11111222' 
LOOP,urn:ioos:station:wmo:lopl1:1,2013-09-01T23:13:00Z,28.8850,-90.0250,10.0,2.1,280.0,3.5,'11111222,11111222,11111222' 
LOOP,urn:ioos:station:wmo:lopl1:1,2013-09-01T23:28:00Z,28.8850,-90.0250,10.0,2.1,273.0,3.3,'11111222,11111222,11111222' 
LOOP,urn:ioos:station:wmo:lopl1:1,2013-09-01T23:43:00Z,28.8850,-90.0250,10.0,1.3,250.0,2.9,'11111222,11111222,11111222' 
LOOP,urn:ioos:station:wmo:lopl1:1,2013-09-01T23:58:00Z,28.8850,-90.0250,10.0,1.8,262.0,2.8,'11111222,11111222,11111222' 
LOOP,urn:ioos:station:wmo:lopl1:1,2013-09-02T00:13:00Z,28.8850,-90.0250,10.0,1.1,-9999.0,2.3,'11111222,99999999,11111222' 
LOOP,urn:ioos:station:wmo:lopl1:1,2013-09-02T00:28:00Z,28.8850,-90.0250,10.0,1.6,284.0,2.4,'11111222,11111222,11111222' 
LOOP,urn:ioos:station:wmo:lopl1:1,2013-09-02T00:43:00Z,28.8850,-90.0250,10.0,2.3,-9999.0,4.1,'11111222,99999999,11111222' 
LOOP,urn:ioos:station:wmo:lopl1:1,2013-09-02T00:58:00Z,28.8850,-90.0250,10.0,2.3,-9999.0,4.2,'11111222,99999999,11111222' 
LOOP,urn:ioos:station:wmo:lopl1:1,2013-09-02T01:13:00Z,28.8850,-90.0250,10.0,2.1,271.0,3.7,'11111222,11111222,11111222' 
LOOP,urn:ioos:station:wmo:lopl1:1,2013-09-02T01:33:00Z,28.8850,-90.0250,10.0,2.1,-9999.0,4.0,'11111222,99999999,11111222' 
LOOP,urn:ioos:station:wmo:lopl1:1,2013-09-02T01:48:00Z,28.8850,-90.0250,10.0,3.8,-9999.0,4.8,'11111222,99999999,11111222' 
LOOP,urn:ioos:station:wmo:lopl1:1,2013-09-02T02:03:00Z,28.8850,-90.0250,10.0,3.6,-9999.0,4.8,'11111222,99999999,11111222' 
LOOP,urn:ioos:station:wmo:lopl1:1,2013-09-02T02:18:00Z,28.8850,-90.0250,10.0,3.8,-9999.0,4.9,'11111222,99999999,11111222' 
LOOP,urn:ioos:station:wmo:lopl1:1,2013-09-02T02:33:00Z,28.8850,-90.0250,10.0,1.9,-9999.0,3.8,'11111222,99999999,11111222' 
LOOP,urn:ioos:station:wmo:lopl1:1,2013-09-02T02:48:00Z,28.8850,-90.0250,10.0,3.4,-9999.0,3.9,'11111222,99999999,11111222' 
LOOP,urn:ioos:station:wmo:lopl1:1,2013-09-02T03:03:00Z,28.8850,-90.0250,10.0,3.2,-9999.0,3.9,'11111222,99999999,11111222' 
LOOP,urn:ioos:station:wmo:lopl1:1,2013-09-02T03:18:00Z,28.8850,-90.0250,10.0,3.2,-9999.0,4.0,'11111222,99999999,11111222' 
LOOP,urn:ioos:station:wmo:lopl1:1,2013-09-02T03:33:00Z,28.8850,-90.0250,10.0,3.5,-9999.0,4.0,'11111222,99999999,11111222' 
LOOP,urn:ioos:station:wmo:lopl1:1,2013-09-02T03:48:00Z,28.8850,-90.0250,10.0,3.8,-9999.0,4.8,'11111222,99999999,11111222' 
LOOP,urn:ioos:station:wmo:lopl1:1,2013-09-02T04:03:00Z,28.8850,-90.0250,10.0,3.8,-9999.0,4.6,'11111222,99999999,11111222' 
LOOP,urn:ioos:station:wmo:lopl1:1,2013-09-02T04:18:00Z,28.8850,-90.0250,10.0,4.3,-9999.0,4.9,'11111222,99999999,11111222' 
LOOP,urn:ioos:station:wmo:lopl1:1,2013-09-02T04:33:00Z,28.8850,-90.0250,10.0,3.3,-9999.0,4.9,'11111222,99999999,11111222' 
LOOP,urn:ioos:station:wmo:lopl1:1,2013-09-02T04:48:00Z,28.8850,-90.0250,10.0,3.5,-9999.0,4.4,'11111222,99999999,11111222' 
LOOP,urn:ioos:station:wmo:lopl1:1,2013-09-02T05:03:00Z,28.8850,-90.0250,10.0,4.1,-9999.0,5.3,'11111222,99999999,11111222' 
LOOP,urn:ioos:station:wmo:lopl1:1,2013-09-02T05:18:00Z,28.8850,-90.0250,10.0,4.8,-9999.0,5.8,'11111222,99999999,11111222' 
LOOP,urn:ioos:station:wmo:lopl1:1,2013-09-02T05:33:00Z,28.8850,-90.0250,10.0,4.4,-9999.0,5.1,'11111222,99999999,11111222' 
LOOP,urn:ioos:station:wmo:lopl1:1,2013-09-02T05:48:00Z,28.8850,-90.0250,10.0,3.6,-9999.0,5.0,'11111222,99999999,11111222' 
LOOP,urn:ioos:station:wmo:lopl1:1,2013-09-02T06:03:00Z,28.8850,-90.0250,10.0,3.8,-9999.0,4.5,'11111222,99999999,11111222' 
LOOP,urn:ioos:station:wmo:lopl1:1,2013-09-02T06:18:00Z,28.8850,-90.0250,10.0,3.6,-9999.0,4.6,'11111222,99999999,11111222' 
LOOP,urn:ioos:station:wmo:lopl1:1,2013-09-02T06:33:00Z,28.8850,-90.0250,10.0,3.7,-9999.0,4.3,'11111222,99999999,11111222' 
LOOP,urn:ioos:station:wmo:lopl1:1,2013-09-02T06:48:00Z,28.8850,-90.0250,10.0,4.1,-9999.0,4.8,'11111222,99999999,11111222' 
LOOP,urn:ioos:station:wmo:lopl1:1,2013-09-02T07:03:00Z,28.8850,-90.0250,10.0,3.4,-9999.0,4.6,'11111222,99999999,11111222' 
LOOP,urn:ioos:station:wmo:lopl1:1,2013-09-02T07:18:00Z,28.8850,-90.0250,10.0,2.3,221.0,3.8,'11111222,11111222,11111222' 
LOOP,urn:ioos:station:wmo:lopl1:1,2013-09-02T07:33:00Z,28.8850,-90.0250,10.0,3.0,229.0,3.8,'11111222,11111222,11111222' 
LOOP,urn:ioos:station:wmo:lopl1:1,2013-09-02T07:53:00Z,28.8850,-90.0250,10.0,3.4,223.0,4.0,'11111222,11111222,11111222' 
LOOP,urn:ioos:station:wmo:lopl1:1,2013-09-02T08:08:00Z,28.8850,-90.0250,10.0,2.7,228.0,4.7,'11111222,11111222,11111222' 
LOOP,urn:ioos:station:wmo:lopl1:1,2013-09-02T08:23:00Z,28.8850,-90.0250,10.0,1.6,-9999.0,2.7,'11111222,99999999,11111222' 
LOOP,urn:ioos:station:wmo:lopl1:1,2013-09-02T08:38:00Z,28.8850,-90.0250,10.0,2.1,-9999.0,3.4,'11111222,99999999,11111222' 
LOOP,urn:ioos:station:wmo:lopl1:1,2013-09-02T08:53:00Z,28.8850,-90.0250,10.0,1.8,-9999.0,3.3,'11111222,99999999,11111222' 
LOOP,urn:ioos:station:wmo:lopl1:1,2013-09-02T09:08:00Z,28.8850,-90.0250,10.0,2.1,-9999.0,3.3,'11111222,99999999,11111222' 
LOOP,urn:ioos:station:wmo:lopl1:1,2013-09-02T09:23:00Z,28.8850,-90.0250,10.0,1.8,290.0,3.7,'11111222,11111222,11111222' 
LOOP,urn:ioos:station:wmo:lopl1:1,2013-09-02T09:38:00Z,28.8850,-90.0250,10.0,1.8,277.0,3.2,'11111222,11111222,11111222' 
LOOP,urn:ioos:station:wmo:lopl1:1,2013-09-02T09:53:00Z,28.8850,-90.0250,10.0,2.1,280.0,3.8,'11111222,11111222,11111222' 
LOOP,urn:ioos:station:wmo:lopl1:1,2013-09-02T10:08:00Z,28.8850,-90.0250,10.0,1.8,265.0,3.7,'11111222,11111222,11111222' 
LOOP,urn:ioos:station:wmo:lopl1:1,2013-09-02T10:23:00Z,28.8850,-90.0250,10.0,2.3,263.0,4.3,'11111222,11111222,11111222' 
LOOP,urn:ioos:station:wmo:lopl1:1,2013-09-02T10:38:00Z,28.8850,-90.0250,10.0,2.4,-9999.0,4.2,'11111222,99999999,11111222' 
LOOP,urn:ioos:station:wmo:lopl1:1,2013-09-02T10:53:00Z,28.8850,-90.0250,10.0,3.0,274.0,4.9,'11111222,11111222,11111222' 
LOOP,urn:ioos:station:wmo:lopl1:1,2013-09-02T11:08:00Z,28.8850,-90.0250,10.0,3.7,-9999.0,5.0,'11111222,99999999,11111222' 
LOOP,urn:ioos:station:wmo:lopl1:1,2013-09-02T11:23:00Z,28.8850,-90.0250,10.0,2.3,274.0,4.1,'11111222,11111222,11111222' 
LOOP,urn:ioos:station:wmo:lopl1:1,2013-09-02T11:38:00Z,28.8850,-90.0250,10.0,4.2,-9999.0,5.4,'11111222,99999999,11111222' 
LOOP,urn:ioos:station:wmo:lopl1:1,2013-09-02T11:53:00Z,28.8850,-90.0250,10.0,3.2,-9999.0,5.2,'11111222,99999999,11111222' 
LOOP,urn:ioos:station:wmo:lopl1:1,2013-09-02T12:08:00Z,28.8850,-90.0250,10.0,4.0,-9999.0,4.8,'11111222,99999999,11111222' 
LOOP,urn:ioos:station:wmo:lopl1:1,2013-09-02T12:23:00Z,28.8850,-90.0250,10.0,3.7,-9999.0,4.7,'11111222,99999999,11111222' 
LOOP,urn:ioos:station:wmo:lopl1:1,2013-09-02T12:38:00Z,28.8850,-90.0250,10.0,3.8,-9999.0,4.8,'11111222,99999999,11111222' 
LOOP,urn:ioos:station:wmo:lopl1:1,2013-09-02T12:53:00Z,28.8850,-90.0250,10.0,2.7,-9999.0,4.5,'11111222,99999999,11111222' 
LOOP,urn:ioos:station:wmo:lopl1:1,2013-09-02T13:08:00Z,28.8850,-90.0250,10.0,3.4,-9999.0,5.0,'11111222,99999999,11111222' 
LOOP,urn:ioos:station:wmo:lopl1:1,2013-09-02T13:23:00Z,28.8850,-90.0250,10.0,4.0,-9999.0,5.0,'11111222,99999999,11111222' 
LOOP,urn:ioos:station:wmo:lopl1:1,2013-09-02T13:38:00Z,28.8850,-90.0250,10.0,3.3,271.0,5.0,'11111222,11111222,11111222' 
LOOP,urn:ioos:station:wmo:lopl1:1,2013-09-02T13:53:00Z,28.8850,-90.0250,10.0,2.1,-9999.0,3.8,'11111222,99999999,11111222' 
LOOP,urn:ioos:station:wmo:lopl1:1,2013-09-02T14:08:00Z,28.8850,-90.0250,10.0,3.3,-9999.0,4.6,'11111222,99999999,11111222' 
LOOP,urn:ioos:station:wmo:lopl1:1,2013-09-02T14:23:00Z,28.8850,-90.0250,10.0,1.8,289.0,3.9,'11111222,11111222,11111222' 
LOOP,urn:ioos:station:wmo:lopl1:1,2013-09-02T14:38:00Z,28.8850,-90.0250,10.0,2.0,267.0,3.2,'11111222,11111222,11111222' 
LOOP,urn:ioos:station:wmo:lopl1:1,2013-09-02T14:53:00Z,28.8850,-90.0250,10.0,2.0,270.0,3.2,'11111222,11111222,11111222' 
LOOP,urn:ioos:station:wmo:lopl1:1,2013-09-02T15:08:00Z,28.8850,-90.0250,10.0,1.8,267.0,3.8,'11111222,11111222,11111222' 
LOOP,urn:ioos:station:wmo:lopl1:1,2013-09-02T15:23:00Z,28.8850,-90.0250,10.0,1.9,269.0,2.9,'11111222,11111222,11111222' 
LOOP,urn:ioos:station:wmo:lopl1:1,2013-09-02T15:43:00Z,28.8850,-90.0250,10.0,3.3,-9999.0,5.1,'11111222,99999999,11111222' 
LOOP,urn:ioos:station:wmo:lopl1:1,2013-09-02T15:58:00Z,28.8850,-90.0250,10.0,4.3,321.0,7.6,'11111222,11111222,11111222' 
LOOP,urn:ioos:station:wmo:lopl1:1,2013-09-02T16:13:00Z,28.8850,-90.0250,10.0,2.0,284.0,3.1,'11111222,11111222,11111222' 
LOOP,urn:ioos:station:wmo:lopl1:1,2013-09-02T16:28:00Z,28.8850,-90.0250,10.0,2.8,329.0,4.3,'11111222,11111222,11111222' 
LOOP,urn:ioos:station:wmo:lopl1:1,2013-09-02T16:43:00Z,28.8850,-90.0250,10.0,2.5,332.0,3.3,'11111222,11111222,11111222' 
LOOP,urn:ioos:station:wmo:lopl1:1,2013-09-02T16:58:00Z,28.8850,-90.0250,10.0,2.0,311.0,2.9,'11111222,11111222,11111222' 
LOOP,urn:ioos:station:wmo:lopl1:1,2013-09-02T17:13:00Z,28.8850,-90.0250,10.0,1.5,326.0,2.3,'11111222,11111222,11111222' 
LOOP,urn:ioos:station:wmo:lopl1:1,2013-09-02T17:28:00Z,28.8850,-90.0250,10.0,2.4,323.0,3.5,'11111222,11111222,11111222' 
LOOP,urn:ioos:station:wmo:lopl1:1,2013-09-02T17:43:00Z,28.8850,-90.0250,10.0,2.4,322.0,3.3,'11111222,11111222,11111222' 
LOOP,urn:ioos:station:wmo:lopl1:1,2013-09-02T17:58:00Z,28.8850,-90.0250,10.0,1.8,310.0,3.2,'11111222,11111222,11111222' 
LOOP,urn:ioos:station:wmo:lopl1:1,2013-09-02T18:13:00Z,28.8850,-90.0250,10.0,1.7,262.0,3.2,'11111222,11111222,11111222' 
LOOP,urn:ioos:station:wmo:lopl1:1,2013-09-02T18:28:00Z,28.8850,-90.0250,10.0,1.6,334.0,2.9,'11111222,11111222,11111222' 
LOOP,urn:ioos:station:wmo:lopl1:1,2013-09-02T18:43:00Z,28.8850,-90.0250,10.0,1.2,294.0,2.5,'11111222,11111222,11111222' 
LOOP,urn:ioos:station:wmo:lopl1:1,2013-09-02T18:58:00Z,28.8850,-90.0250,10.0,2.2,302.0,3.4,'11111222,11111222,11111222' 
LOOP,urn:ioos:station:wmo:lopl1:1,2013-09-02T19:13:00Z,28.8850,-90.0250,10.0,1.8,313.0,3.1,'11111222,11111222,11111222' 
LOOP,urn:ioos:station:wmo:lopl1:1,2013-09-02T19:28:00Z,28.8850,-90.0250,10.0,1.7,314.0,3.2,'11111222,11111222,11111222' 
LOOP,urn:ioos:station:wmo:lopl1:1,2013-09-02T19:43:00Z,28.8850,-90.0250,10.0,0.9,284.0,2.3,'11111222,11111222,11111222' 
LOOP,urn:ioos:station:wmo:lopl1:1,2013-09-02T19:58:00Z,28.8850,-90.0250,10.0,0.8,265.0,2.4,'11111222,11111222,11111222' 
LOOP,urn:ioos:station:wmo:lopl1:1,2013-09-02T20:13:00Z,28.8850,-90.0250,10.0,1.0,-9999.0,2.8,'11111222,99999999,11111222' 
LOOP,urn:ioos:station:wmo:lopl1:1,2013-09-02T20:28:00Z,28.8850,-90.0250,10.0,0.8,-9999.0,2.2,'11111222,99999999,11111222' 
LOOP,urn:ioos:station:wmo:lopl1:1,2013-09-02T20:43:00Z,28.8850,-90.0250,10.0,2.0,278.0,4.2,'11111222,11111222,11111222' 
LOOP,urn:ioos:station:wmo:lopl1:1,2013-09-02T20:58:00Z,28.8850,-90.0250,10.0,2.4,285.0,3.7,'11111222,11111222,11111222' 
LOOP,urn:ioos:station:wmo:lopl1:1,2013-09-02T21:13:00Z,28.8850,-90.0250,10.0,2.4,290.0,3.3,'11111222,11111222,11111222' 
LOOP,urn:ioos:station:wmo:lopl1:1,2013-09-02T21:28:00Z,28.8850,-90.0250,10.0,1.5,260.0,3.7,'11111222,11111222,11111222' 
LOOP,urn:ioos:station:wmo:lopl1:1,2013-09-02T21:48:00Z,28.8850,-90.0250,10.0,1.4,271.0,2.7,'11111222,11111222,11111222' 
LOOP,urn:ioos:station:wmo:lopl1:1,2013-09-02T22:03:00Z,28.8850,-90.0250,10.0,2.8,213.0,4.1,'11111222,11111222,11111222' 
LOOP,urn:ioos:station:wmo:lopl1:1,2013-09-02T22:18:00Z,28.8850,-90.0250,10.0,3.2,216.0,4.1,'11111222,11111222,11111222' 
LOOP,urn:ioos:station:wmo:lopl1:1,2013-09-02T22:33:00Z,28.8850,-90.0250,10.0,3.1,209.0,4.4,'11111222,11111222,11111222' 
LOOP,urn:ioos:station:wmo:lopl1:1,2013-09-02T22:48:00Z,28.8850,-90.0250,10.0,3.4,212.0,4.4,'11111222,11111222,11111222' 
LOOP,urn:ioos:station:wmo:lopl1:1,2013-09-02T23:03:00Z,28.8850,-90.0250,10.0,3.5,210.0,4.3,'11111222,11111222,11111222' 
LOOP,urn:ioos:station:wmo:lopl1:1,2013-09-02T23:18:00Z,28.8850,-90.0250,10.0,3.3,221.0,4.3,'11111222,11111222,11111222' 
LOOP,urn:ioos:station:wmo:lopl1:1,2013-09-02T23:33:00Z,28.8850,-90.0250,10.0,4.2,217.0,5.0,'11111222,11111222,11111222' 
LOOP,urn:ioos:station:wmo:lopl1:1,2013-09-02T23:48:00Z,28.8850,-90.0250,10.0,4.1,221.0,5.0,'11111222,11111222,11111222' 
LOOP,urn:ioos:station:wmo:lopl1:1,2013-09-03T00:03:00Z,28.8850,-90.0250,10.0,4.2,212.0,6.4,'11111222,11111222,11111222' 
LOOP,urn:ioos:station:wmo:lopl1:1,2013-09-03T00:18:00Z,28.8850,-90.0250,10.0,4.8,222.0,6.0,'11111222,11111222,11111222' 
LOOP,urn:ioos:station:wmo:lopl1:1,2013-09-03T00:33:00Z,28.8850,-90.0250,10.0,4.0,221.0,5.4,'11111222,11111222,11111222' 
LOOP,urn:ioos:station:wmo:lopl1:1,2013-09-03T00:48:00Z,28.8850,-90.0250,10.0,3.9,220.0,4.5,'11111222,11111222,11111222' 
LOOP,urn:ioos:station:wmo:lopl1:1,2013-09-03T01:03:00Z,28.8850,-90.0250,10.0,3.6,214.0,4.4,'11111222,11111222,11111222' 